Tracking 19909 objects as of 22-Oct-2019
HD Live streaming from Space Station
objects crossing your sky now

TITAN 4B R/B

Track TITAN 4B R/B now!
10-day predictions
TITAN 4B R/B is classified as:


NORAD ID: 26474
Int'l Code: 2000-047B
Perigee: 551.3 km
Apogee: 622.3 km
Inclination: 68.0 °
Period: 96.3 minutes
Semi major axis: 6957 km
RCS: 15.6118 m2 (large)
Launch date: August 17, 2000
Source: United States (US)
Launch site: AIR FORCE WESTERN TEST RANGE (AFWTR)

Note: This is a ROCKET BODY
aabbcc
Your satellite tracking list
Your tracking list is empty




NASA's NSSDC Master Catalog

Two Line Element Set (TLE):
1 26474U 00047B   19295.15221718  .00000046  00000-0  14953-4 0  9993
2 26474  67.9956  14.3445 0051019 101.8253 258.8618 14.95870324 43530
Source of the keplerian elements: AFSPC